| time (UTC) | temp C | wind direction | speed KPH | gust KPH | rain 1hr cm | rain 24hr cm | rain mn cm | humidity % | barometer mb |
| 20260504160129 | 15 | 287 | 1.6 | 17.7 | 0.00 | 0.00 | 0.00 | 52 | 1009.4 |
| 20260504151057 | 13 | 257 | 9.7 | 14.5 | 0.00 | 0.00 | 0.00 | 56 | 1009.7 |
| 20260504150554 | 12 | 183 | 6.4 | 11.3 | 0.00 | 0.00 | 0.00 | 55 | 1009.9 |
| 20260504141020 | 11 | 243 | 4.8 | 4.8 | 0.00 | 0.00 | 0.00 | 60 | 1010.3 |
| 20260504140517 | 11 | 248 | 8.0 | 11.3 | 0.00 | 0.00 | 0.00 | 56 | 1010.3 |
| 20260504130441 | 10 | 254 | 6.4 | 17.7 | 0.00 | 0.00 | 0.00 | 59 | 1010.7 |
| 20260504110328 | 6 | 219 | 11.3 | 25.7 | 0.00 | 0.00 | 0.00 | 68 | 1010.7 |
| 20260504100246 | 5 | 254 | 1.6 | 8.0 | 0.00 | 0.00 | 0.00 | 69 | 1010.8 |
| 20260504081639 | 5 | 250 | 6.4 | 11.3 | 0.00 | 0.00 | 0.00 | 68 | 1010.7 |
| 20260504081135 | 6 | 182 | 8.0 | 11.3 | 0.00 | 0.00 | 0.00 | 68 | 1010.8 |
| 20260504080632 | 6 | 196 | 8.0 | 12.9 | 0.00 | 0.00 | 0.00 | 68 | 1010.8 |
| 20260504080128 | 6 | 236 | 4.8 | 9.7 | 0.00 | 0.00 | 0.00 | 68 | 1010.4 |
| 20260504050445 | 5 | 260 | 1.6 | 3.2 | 0.00 | 0.00 | 0.00 | 72 | 1010.4 |
| 20260504045942 | 6 | 275 | 0.0 | 0.0 | 0.00 | 0.00 | 0.00 | 71 | 1010.4 |
| 20260504045437 | 6 | 275 | 0.0 | 0.0 | 0.00 | 0.00 | 0.00 | 70 | 1010.8 |
| 20260504044934 | 6 | 275 | 0.0 | 0.0 | 0.00 | 0.00 | 0.00 | 70 | 1010.5 |
| 20260504044431 | 6 | 275 | 0.0 | 0.0 | 0.00 | 0.00 | 0.00 | 70 | 1010.7 |
| 20260504043929 | 6 | 275 | 0.0 | 0.0 | 0.00 | 0.00 | 0.00 | 70 | 1010.7 |
| 20260504043426 | 6 | 275 | 0.0 | 0.0 | 0.00 | 0.00 | 0.00 | 70 | 1010.5 |
| 20260504042923 | 6 | 275 | 0.0 | 0.0 | 0.00 | 0.00 | 0.00 | 70 | 1010.5 |
| 20260504042419 | 6 | 275 | 0.0 | 0.0 | 0.00 | 0.00 | 0.00 | 70 | 1010.7 |
| 20260504041916 | 6 | 275 | 0.0 | 1.6 | 0.00 | 0.00 | 0.00 | 70 | 1010.7 |
| 20260504041412 | 6 | 275 | 3.2 | 3.2 | 0.00 | 0.00 | 0.00 | 70 | 1010.5 |
| 20260504040908 | 6 | 275 | 0.0 | 1.6 | 0.00 | 0.00 | 0.00 | 70 | 1010.5 |
| 20260504040406 | 6 | 268 | 0.0 | 0.0 | 0.00 | 0.00 | 0.00 | 70 | 1010.8 |
| 20260504035902 | 6 | 278 | 0.0 | 3.2 | 0.00 | 0.00 | 0.00 | 69 | 1010.7 |
| 20260504035359 | 6 | 275 | 0.0 | 0.0 | 0.00 | 0.00 | 0.00 | 69 | 1010.8 |
| 20260504034856 | 6 | 274 | 0.0 | 3.2 | 0.00 | 0.00 | 0.00 | 69 | 1010.9 |
| 20260504034353 | 6 | 262 | 1.6 | 8.0 | 0.00 | 0.00 | 0.00 | 69 | 1010.8 |
| 20260504033850 | 6 | 280 | 0.0 | 12.9 | 0.00 | 0.00 | 0.00 | 69 | 1010.7 |
| 20260504033348 | 6 | 280 | 3.2 | 4.8 | 0.00 | 0.00 | 0.00 | 69 | 1010.8 |
| 20260504032845 | 6 | 289 | 3.2 | 4.8 | 0.00 | 0.00 | 0.00 | 68 | 1011.0 |
| 20260504032342 | 6 | 263 | 4.8 | 9.7 | 0.00 | 0.00 | 0.00 | 68 | 1011.0 |
| 20260504031838 | 6 | 225 | 6.4 | 8.0 | 0.00 | 0.00 | 0.00 | 68 | 1010.9 |
| 20260504031336 | 6 | 308 | 3.2 | 3.2 | 0.00 | 0.00 | 0.00 | 68 | 1010.9 |
| 20260504030832 | 6 | 263 | 1.6 | 3.2 | 0.00 | 0.00 | 0.00 | 68 | 1010.9 |
| 20260504030330 | 6 | 274 | 0.0 | 1.6 | 0.00 | 0.00 | 0.00 | 68 | 1011.0 |
| 20260504025826 | 6 | 286 | 1.6 | 8.0 | 0.00 | 0.00 | 0.00 | 69 | 1010.8 |
| 20260504025323 | 6 | 278 | 0.0 | 1.6 | 0.00 | 0.00 | 0.00 | 69 | 1011.1 |
| 20260504024820 | 6 | 274 | 1.6 | 3.2 | 0.00 | 0.00 | 0.00 | 69 | 1010.9 |
| 20260504024316 | 5 | 266 | 0.0 | 8.0 | 0.00 | 0.00 | 0.00 | 70 | 1011.0 |
| 20260504023812 | 5 | 259 | 0.0 | 1.6 | 0.00 | 0.00 | 0.00 | 70 | 1010.9 |
| 20260504023309 | 5 | 260 | 0.0 | 0.0 | 0.00 | 0.00 | 0.00 | 70 | 1011.1 |
| 20260504022805 | 5 | 260 | 0.0 | 0.0 | 0.00 | 0.00 | 0.00 | 70 | 1011.1 |
| 20260504022304 | 5 | 260 | 0.0 | 0.0 | 0.00 | 0.00 | 0.00 | 69 | 1010.9 |
| 20260504021758 | 5 | 260 | 0.0 | 0.0 | 0.00 | 0.00 | 0.00 | 69 | 1011.1 |
| 20260504021256 | 5 | 260 | 0.0 | 0.0 | 0.00 | 0.00 | 0.00 | 69 | 1011.0 |
| 20260504020753 | 5 | 260 | 1.6 | 1.6 | 0.00 | 0.00 | 0.00 | 69 | 1010.9 |
| 20260504020249 | 5 | 264 | 0.0 | 0.0 | 0.00 | 0.00 | 0.00 | 69 | 1010.8 |
| 20260504015745 | 5 | 264 | 0.0 | 1.6 | 0.00 | 0.00 | 0.00 | 69 | 1010.9 |
| 20260504015242 | 5 | 268 | 0.0 | 3.2 | 0.00 | 0.00 | 0.00 | 69 | 1011.0 |
| 20260504014737 | 5 | 266 | 0.0 | 0.0 | 0.00 | 0.00 | 0.00 | 68 | 1011.0 |
| 20260504014234 | 6 | 266 | 0.0 | 0.0 | 0.00 | 0.00 | 0.00 | 68 | 1011.1 |
| 20260504013732 | 6 | 266 | 0.0 | 0.0 | 0.00 | 0.00 | 0.00 | 68 | 1011.0 |
| 20260504013230 | 6 | 248 | 0.0 | 0.0 | 0.00 | 0.00 | 0.00 | 68 | 1011.0 |
| 20260504012726 | 6 | 248 | 0.0 | 0.0 | 0.00 | 0.00 | 0.00 | 67 | 1010.7 |
| 20260504012224 | 6 | 267 | 0.0 | 0.0 | 0.00 | 0.00 | 0.00 | 67 | 1010.9 |
| 20260504011720 | 6 | 267 | 0.0 | 0.0 | 0.00 | 0.00 | 0.00 | 67 | 1010.7 |
| 20260504011217 | 6 | 267 | 0.0 | 1.6 | 0.00 | 0.00 | 0.00 | 66 | 1010.7 |
| 20260504010713 | 6 | 266 | 0.0 | 0.0 | 0.00 | 0.00 | 0.00 | 66 | 1010.7 |
| 20260504010209 | 6 | 266 | 0.0 | 0.0 | 0.00 | 0.00 | 0.00 | 66 | 1010.5 |
| 20260504005706 | 6 | 266 | 0.0 | 0.0 | 0.00 | 0.00 | 0.00 | 66 | 1010.7 |
| 20260504005203 | 6 | 266 | 0.0 | 0.0 | 0.00 | 0.00 | 0.00 | 66 | 1010.3 |
| 20260504004701 | 6 | 266 | 0.0 | 0.0 | 0.00 | 0.00 | 0.00 | 66 | 1010.4 |
| 20260504004157 | 6 | 266 | 0.0 | 0.0 | 0.00 | 0.00 | 0.00 | 66 | 1010.4 |
| 20260504003654 | 6 | 266 | 0.0 | 0.0 | 0.00 | 0.00 | 0.00 | 65 | 1010.2 |
| 20260504003151 | 6 | 266 | 0.0 | 0.0 | 0.00 | 0.00 | 0.00 | 66 | 1010.2 |
| 20260504002647 | 6 | 266 | 0.0 | 0.0 | 0.00 | 0.00 | 0.00 | 65 | 1010.2 |
| 20260504002145 | 6 | 266 | 0.0 | 0.0 | 0.00 | 0.00 | 0.00 | 65 | 1010.0 |
| 20260504001643 | 6 | 266 | 0.0 | 0.0 | 0.00 | 0.00 | 0.00 | 65 | 1010.1 |
| 20260504001138 | 6 | 266 | 0.0 | 1.6 | 0.00 | 0.00 | 0.00 | 64 | 1010.1 |
| 20260504000636 | 6 | 266 | 0.0 | 0.0 | 0.00 | 0.00 | 0.00 | 64 | 1010.3 |
| 20260504000133 | 6 | 266 | 0.0 | 1.6 | 0.00 | 0.00 | 0.00 | 63 | 1010.2 |
| 20260503235631 | 7 | 266 | 0.0 | 0.0 | 0.00 | 0.00 | 0.00 | 62 | 1010.0 |
| 20260503235128 | 7 | 266 | 1.6 | 3.2 | 0.00 | 0.00 | 0.00 | 62 | 1010.0 |
| 20260503234626 | 7 | 279 | 0.0 | 3.2 | 0.00 | 0.00 | 0.00 | 62 | 1010.0 |
| 20260503234124 | 7 | 279 | 1.6 | 1.6 | 0.00 | 0.00 | 0.00 | 61 | 1010.0 |
| 20260503233621 | 7 | 259 | 0.0 | 3.2 | 0.00 | 0.00 | 0.00 | 61 | 1010.0 |
| 20260503233116 | 7 | 281 | 1.6 | 4.8 | 0.00 | 0.00 | 0.00 | 61 | 1009.9 |
| 20260503232613 | 7 | 266 | 3.2 | 11.3 | 0.00 | 0.00 | 0.00 | 62 | 1010.0 |
| 20260503232110 | 7 | 248 | 4.8 | 14.5 | 0.00 | 0.00 | 0.00 | 61 | 1009.8 |
| 20260503231609 | 7 | 276 | 0.0 | 3.2 | 0.00 | 0.00 | 0.00 | 61 | 1009.9 |
| 20260503231105 | 7 | 292 | 1.6 | 4.8 | 0.00 | 0.00 | 0.00 | 61 | 1010.0 |
| 20260503230602 | 7 | 263 | 4.8 | 8.0 | 0.00 | 0.00 | 0.00 | 61 | 1010.0 |
| 20260503230059 | 7 | 335 | 6.4 | 8.0 | 0.00 | 0.00 | 0.00 | 61 | 1009.8 |
| 20260503225555 | 7 | 279 | 1.6 | 3.2 | 0.00 | 0.00 | 0.00 | 61 | 1009.9 |
| 20260503225051 | 7 | 303 | 1.6 | 3.2 | 0.00 | 0.00 | 0.00 | 61 | 1009.7 |
| 20260503224549 | 7 | 254 | 1.6 | 8.0 | 0.00 | 0.00 | 0.00 | 60 | 1010.1 |
| 20260503224046 | 8 | 258 | 3.2 | 11.3 | 0.00 | 0.00 | 0.00 | 60 | 1010.0 |
| 20260503223544 | 8 | 231 | 3.2 | 4.8 | 0.00 | 0.00 | 0.00 | 60 | 1009.9 |
| 20260503223039 | 8 | 265 | 1.6 | 8.0 | 0.00 | 0.00 | 0.00 | 60 | 1010.1 |
| 20260503222538 | 8 | 259 | 4.8 | 8.0 | 0.00 | 0.00 | 0.00 | 59 | 1010.1 |
| 20260503222035 | 8 | 291 | 8.0 | 11.3 | 0.00 | 0.00 | 0.00 | 58 | 1010.0 |
| 20260503221533 | 8 | 245 | 6.4 | 17.7 | 0.00 | 0.00 | 0.00 | 57 | 1009.9 |
| 20260503221031 | 8 | 323 | 1.6 | 3.2 | 0.00 | 0.00 | 0.00 | 57 | 1009.9 |
| 20260503220526 | 8 | 252 | 3.2 | 11.3 | 0.00 | 0.00 | 0.00 | 55 | 1009.8 |
| 20260503220023 | 8 | 313 | 8.0 | 14.5 | 0.00 | 0.00 | 0.00 | 54 | 1009.8 |
| 20260503215521 | 8 | 264 | 6.4 | 12.9 | 0.00 | 0.00 | 0.00 | 53 | 1009.7 |
| 20260503215018 | 8 | 269 | 8.0 | 16.1 | 0.00 | 0.00 | 0.00 | 52 | 1009.8 |
| 20260503214516 | 9 | 279 | 4.8 | 12.9 | 0.00 | 0.00 | 0.00 | 53 | 1009.7 |
| 20260503214012 | 9 | 254 | 4.8 | 17.7 | 0.00 | 0.00 | 0.00 | 53 | 1009.7 |
| 20260503213511 | 8 | 303 | 3.2 | 9.7 | 0.00 | 0.00 | 0.00 | 52 | 1009.3 |
| 20260503213007 | 9 | 329 | 6.4 | 14.5 | 0.00 | 0.00 | 0.00 | 51 | 1009.5 |
| 20260503212504 | 9 | 248 | 4.8 | 11.3 | 0.00 | 0.00 | 0.00 | 50 | 1009.4 |
| 20260503212002 | 9 | 288 | 8.0 | 11.3 | 0.00 | 0.00 | 0.00 | 50 | 1009.5 |
| 20260503211459 | 9 | 258 | 3.2 | 11.3 | 0.00 | 0.00 | 0.00 | 50 | 1009.4 |
| 20260503210955 | 10 | 257 | 8.0 | 16.1 | 0.00 | 0.00 | 0.00 | 49 | 1009.5 |
| 20260503210452 | 9 | 302 | 3.2 | 11.3 | 0.00 | 0.00 | 0.00 | 48 | 1009.4 |
| 20260503205952 | 10 | 306 | 1.6 | 16.1 | 0.00 | 0.00 | 0.00 | 48 | 1009.2 |
| 20260503205449 | 10 | 335 | 9.7 | 16.1 | 0.00 | 0.00 | 0.00 | 47 | 1009.5 |
| 20260503204945 | 10 | 240 | 1.6 | 11.3 | 0.00 | 0.00 | 0.00 | 48 | 1009.4 |
| 20260503204442 | 10 | 348 | 14.5 | 24.1 | 0.00 | 0.00 | 0.00 | 46 | 1009.3 |
| 20260503203939 | 10 | 291 | 1.6 | 14.5 | 0.00 | 0.00 | 0.00 | 45 | 1009.3 |
| 20260503203437 | 10 | 237 | 8.0 | 27.4 | 0.00 | 0.00 | 0.00 | 44 | 1009.0 |
| 20260503202933 | 10 | 339 | 9.7 | 12.9 | 0.00 | 0.00 | 0.00 | 44 | 1009.3 |
| 20260503202432 | 10 | 293 | 6.4 | 11.3 | 0.00 | 0.00 | 0.00 | 43 | 1009.0 |
| 20260503201930 | 10 | 297 | 11.3 | 16.1 | 0.00 | 0.00 | 0.00 | 43 | 1009.4 |
| 20260503201427 | 10 | 278 | 8.0 | 14.5 | 0.00 | 0.00 | 0.00 | 44 | 1009.3 |
| 20260503200924 | 10 | 301 | 4.8 | 12.9 | 0.00 | 0.00 | 0.00 | 42 | 1009.6 |
| 20260503200420 | 10 | 304 | 6.4 | 11.3 | 0.00 | 0.00 | 0.00 | 42 | 1009.1 |
| 20260503195917 | 10 | 302 | 6.4 | 16.1 | 0.00 | 0.00 | 0.00 | 39 | 1009.3 |
| 20260503195415 | 11 | 304 | 8.0 | 20.9 | 0.00 | 0.00 | 0.00 | 41 | 1009.5 |
| 20260503194911 | 11 | 264 | 8.0 | 24.1 | 0.00 | 0.00 | 0.00 | 40 | 1009.5 |
| 20260503194408 | 11 | 332 | 9.7 | 14.5 | 0.00 | 0.00 | 0.00 | 41 | 1009.3 |
| 20260503193903 | 11 | 284 | 3.2 | 11.3 | 0.00 | 0.00 | 0.00 | 44 | 1009.7 |
| 20260503193359 | 11 | 301 | 11.3 | 17.7 | 0.00 | 0.00 | 0.00 | 42 | 1010.0 |
| 20260503192855 | 10 | 253 | 4.8 | 17.7 | 0.00 | 0.00 | 0.00 | 43 | 1009.7 |
| 20260503192350 | 10 | 268 | 4.8 | 8.0 | 0.00 | 0.00 | 0.00 | 44 | 1009.7 |
| 20260503191847 | 10 | 246 | 6.4 | 16.1 | 0.00 | 0.00 | 0.00 | 45 | 1009.8 |
| 20260503191344 | 9 | 292 | 6.4 | 11.3 | 0.00 | 0.00 | 0.00 | 46 | 1009.8 |
| 20260503190841 | 9 | 336 | 3.2 | 17.7 | 0.00 | 0.00 | 0.00 | 44 | 1010.1 |
| 20260503190338 | 9 | 262 | 1.6 | 11.3 | 0.00 | 0.00 | 0.00 | 47 | 1010.1 |
| 20260503185835 | 8 | 268 | 8.0 | 17.7 | 0.00 | 0.00 | 0.00 | 44 | 1009.9 |
| 20260503185331 | 8 | 282 | 6.4 | 17.7 | 0.00 | 0.00 | 0.00 | 45 | 1010.0 |
| 20260503184826 | 9 | 343 | 4.8 | 9.7 | 0.00 | 0.00 | 0.00 | 46 | 1010.2 |
| 20260503184322 | 8 | 244 | 4.8 | 9.7 | 0.00 | 0.00 | 0.00 | 46 | 1010.3 |
| 20260503183818 | 8 | 313 | 4.8 | 14.5 | 0.00 | 0.00 | 0.00 | 46 | 1010.1 |
| 20260503183315 | 9 | 294 | 1.6 | 12.9 | 0.00 | 0.00 | 0.00 | 47 | 1010.2 |
| 20260503182812 | 8 | 329 | 4.8 | 9.7 | 0.00 | 0.00 | 0.00 | 49 | 1010.4 |
| 20260503182312 | 8 | 254 | 9.7 | 11.3 | 0.00 | 0.00 | 0.00 | 46 | 1010.4 |
| 20260503181808 | 8 | 302 | 1.6 | 24.1 | 0.00 | 0.00 | 0.00 | 44 | 1010.4 |
| 20260503181305 | 9 | 318 | 4.8 | 8.0 | 0.00 | 0.00 | 0.00 | 46 | 1010.4 |
| 20260503180802 | 9 | 291 | 1.6 | 11.3 | 0.00 | 0.00 | 0.00 | 46 | 1010.4 |
| 20260503180300 | 10 | 229 | 14.5 | 20.9 | 0.00 | 0.00 | 0.00 | 48 | 1010.3 |
| 20260503175755 | 8 | 304 | 4.8 | 12.9 | 0.00 | 0.00 | 0.00 | 49 | 1010.5 |
| 20260503175254 | 8 | 245 | 12.9 | 22.5 | 0.00 | 0.00 | 0.00 | 49 | 1010.4 |
| 20260503174755 | 8 | 259 | 3.2 | 11.3 | 0.00 | 0.00 | 0.00 | 50 | 1010.4 |
| 20260503174253 | 8 | 284 | 8.0 | 20.9 | 0.00 | 0.00 | 0.00 | 49 | 1010.4 |
| 20260503173748 | 7 | 342 | 16.1 | 22.5 | 0.00 | 0.00 | 0.00 | 51 | 1010.8 |
| 20260503173244 | 7 | 284 | 8.0 | 17.7 | 0.00 | 0.00 | 0.00 | 47 | 1010.3 |
| 20260503172741 | 7 | 282 | 9.7 | 14.5 | 0.00 | 0.00 | 0.00 | 50 | 1010.8 |
| 20260503172238 | 7 | 247 | 3.2 | 9.7 | 0.00 | 0.00 | 0.00 | 54 | 1010.8 |
| 20260503171735 | 6 | 303 | 6.4 | 9.7 | 0.00 | 0.00 | 0.00 | 54 | 1010.9 |
| 20260503171232 | 6 | 233 | 3.2 | 9.7 | 0.00 | 0.00 | 0.00 | 53 | 1011.1 |
| 20260503170729 | 6 | 335 | 6.4 | 20.9 | 0.00 | 0.00 | 0.00 | 53 | 1011.3 |
| 20260503170226 | 6 | 263 | 4.8 | 9.7 | 0.00 | 0.00 | 0.00 | 55 | 1010.9 |